| time (UTC) | temp F | wind direction | speed MPH | gust MPH | rain 1hr in | rain 24hr in | rain mn in | humidity % | barometer mb |
| 20260906193042 | 60 | 223 | 0.0 | 0.0 | 0.00 | 0.00 | 0.02 | 82 | 1021.3 |
| 20260906191559 | 60 | 222 | 0.0 | 0.0 | 0.00 | 0.00 | 0.02 | 81 | 1021.4 |
| 20260906190042 | 60 | 222 | 0.0 | 0.0 | 0.00 | 0.00 | 0.02 | 81 | 1021.3 |
| 20260906184543 | 60 | 222 | 0.0 | 0.0 | 0.00 | 0.00 | 0.02 | 80 | 1021.5 |
| 20260906183041 | 61 | 222 | 0.0 | 0.0 | 0.00 | 0.00 | 0.02 | 79 | 1021.4 |
| 20260906181541 | 61 | 222 | 0.0 | 0.0 | 0.00 | 0.00 | 0.02 | 77 | 1021.4 |
| 20260906180059 | 62 | 222 | 0.0 | 0.0 | 0.00 | 0.00 | 0.02 | 76 | 1021.4 |
| 20260906174551 | 63 | 222 | 0.0 | 0.0 | 0.00 | 0.00 | 0.02 | 74 | 1021.4 |
| 20260906173039 | 63 | 222 | 0.0 | 0.0 | 0.00 | 0.00 | 0.02 | 73 | 1021.3 |
| 20260906171639 | 64 | 221 | 0.0 | 0.0 | 0.00 | 0.00 | 0.02 | 73 | 1021.3 |
| 20260906170038 | 64 | 221 | 0.0 | 0.0 | 0.00 | 0.00 | 0.02 | 72 | 1021.4 |
| 20260906164537 | 65 | 221 | 0.0 | 0.0 | 0.00 | 0.00 | 0.02 | 72 | 1021.3 |
| 20260906163037 | 65 | 218 | 0.0 | 0.0 | 0.00 | 0.00 | 0.02 | 71 | 1021.5 |
| 20260906161538 | 65 | 218 | 0.0 | 0.0 | 0.00 | 0.00 | 0.02 | 69 | 1021.6 |
| 20260906160037 | 66 | 233 | 0.0 | 0.0 | 0.00 | 0.00 | 0.02 | 68 | 1021.5 |
| 20260906154535 | 67 | 234 | 0.0 | 0.0 | 0.00 | 0.00 | 0.02 | 66 | 1021.5 |
| 20260906153044 | 68 | 235 | 0.0 | 0.0 | 0.00 | 0.00 | 0.02 | 66 | 1021.4 |
| 20260906151549 | 68 | 292 | 0.0 | 0.0 | 0.00 | 0.00 | 0.02 | 64 | 1021.4 |
| 20260906150036 | 68 | 292 | 0.0 | 0.0 | 0.00 | 0.00 | 0.02 | 62 | 1021.4 |
| 20260906144536 | 69 | 284 | 0.0 | 0.0 | 0.00 | 0.00 | 0.02 | 61 | 1021.4 |
| 20260906143041 | 68 | 346 | 0.0 | 0.0 | 0.00 | 0.00 | 0.02 | 62 | 1021.5 |
| 20260906141532 | 68 | 203 | 0.0 | 0.0 | 0.00 | 0.00 | 0.02 | 63 | 1021.4 |
| 20260906140034 | 68 | 248 | 0.0 | 0.0 | 0.00 | 0.00 | 0.02 | 61 | 1021.5 |
| 20260906134528 | 68 | 223 | 0.0 | 0.0 | 0.00 | 0.00 | 0.02 | 63 | 1021.3 |
| 20260906133028 | 68 | 223 | 1.0 | 0.0 | 0.00 | 0.00 | 0.02 | 64 | 1021.2 |
| 20260906131525 | 67 | 210 | 0.0 | 0.0 | 0.00 | 0.00 | 0.02 | 64 | 1021.3 |
| 20260906130024 | 67 | 212 | 1.0 | 0.0 | 0.00 | 0.00 | 0.02 | 65 | 1021.3 |
| 20260906124522 | 67 | 309 | 1.0 | 0.0 | 0.00 | 0.00 | 0.02 | 65 | 1021.4 |
| 20260906123037 | 67 | 216 | 1.0 | 0.0 | 0.00 | 0.00 | 0.02 | 66 | 1021.3 |
| 20260906121521 | 66 | 220 | 0.0 | 0.0 | 0.00 | 0.00 | 0.02 | 68 | 1021.4 |
| 20260906120021 | 67 | 227 | 0.0 | 0.0 | 0.00 | 0.00 | 0.02 | 67 | 1021.3 |
| 20260906114522 | 67 | 217 | 0.0 | 0.0 | 0.00 | 0.00 | 0.02 | 69 | 1021.2 |
| 20260906113018 | 66 | 344 | 0.0 | 0.0 | 0.00 | 0.00 | 0.01 | 69 | 1021.1 |
| 20260906111518 | 67 | 244 | 0.0 | 0.0 | 0.00 | 0.00 | 0.01 | 68 | 1021.1 |
| 20260906110016 | 67 | 240 | 0.0 | 0.0 | 0.00 | 0.00 | 0.01 | 70 | 1020.9 |
| 20260906104513 | 67 | 259 | 0.0 | 0.0 | 0.00 | 0.00 | 0.01 | 69 | 1020.8 |
| 20260906103010 | 66 | 313 | 0.0 | 0.0 | 0.00 | 0.00 | 0.01 | 71 | 1020.7 |
| 20260906101518 | 65 | 287 | 0.0 | 0.0 | 0.00 | 0.00 | 0.01 | 71 | 1020.5 |
| 20260906100006 | 65 | 321 | 0.0 | 0.0 | 0.00 | 0.00 | 0.01 | 71 | 1020.4 |
| 20260906094504 | 65 | 299 | 0.0 | 0.0 | 0.00 | 0.00 | 0.01 | 71 | 1020.1 |
| 20260906093102 | 64 | 259 | 0.0 | 0.0 | 0.00 | 0.00 | 0.01 | 75 | 1020.0 |
| 20260906091600 | 64 | 277 | 0.0 | 0.0 | 0.00 | 0.00 | 0.01 | 75 | 1020.0 |
| 20260906090115 | 63 | 213 | 0.0 | 0.0 | 0.00 | 0.00 | 0.01 | 76 | 1019.9 |
| 20260906084556 | 62 | 211 | 0.0 | 0.0 | 0.00 | 0.00 | 0.01 | 78 | 1019.6 |
| 20260906083051 | 61 | 187 | 0.0 | 0.0 | 0.00 | 0.00 | 0.01 | 80 | 1019.6 |
| 20260906081553 | 61 | 338 | 0.0 | 0.0 | 0.00 | 0.00 | 0.01 | 79 | 1019.5 |
| 20260906080051 | 60 | 246 | 0.0 | 0.0 | 0.00 | 0.00 | 0.01 | 81 | 1019.3 |
| 20260906074543 | 60 | 257 | 0.0 | 0.0 | 0.00 | 0.00 | 0.01 | 81 | 1019.1 |
| 20260906073056 | 59 | 303 | 0.0 | 0.0 | 0.00 | 0.00 | 0.01 | 81 | 1018.9 |
| 20260906071539 | 59 | 291 | 0.0 | 0.0 | 0.00 | 0.00 | 0.01 | 82 | 1018.7 |
| 20260906070041 | 59 | 271 | 0.0 | 0.0 | 0.00 | 0.00 | 0.01 | 82 | 1018.5 |
| 20260906064537 | 58 | 49 | 1.0 | 0.0 | 0.00 | 0.00 | 0.01 | 82 | 1018.5 |
| 20260906063045 | 58 | 309 | 0.0 | 0.0 | 0.00 | 0.00 | 0.01 | 83 | 1018.2 |
| 20260906061535 | 58 | 255 | 0.0 | 0.0 | 0.00 | 0.00 | 0.01 | 84 | 1018.1 |
| 20260906060033 | 57 | 321 | 0.0 | 0.0 | 0.00 | 0.00 | 0.01 | 83 | 1017.9 |
| 20260906054533 | 57 | 249 | 0.0 | 0.0 | 0.00 | 0.00 | 0.01 | 83 | 1017.8 |
| 20260906053029 | 57 | 337 | 0.0 | 0.0 | 0.00 | 0.00 | 0.01 | 83 | 1017.4 |
| 20260906051549 | 57 | 288 | 0.0 | 0.0 | 0.00 | 0.00 | 0.01 | 83 | 1017.4 |
| 20260906050031 | 57 | 338 | 0.0 | 0.0 | 0.00 | 0.00 | 0.01 | 83 | 1017.2 |
| 20260906044526 | 57 | 277 | 0.0 | 0.0 | 0.00 | 0.00 | 0.01 | 84 | 1017.1 |
| 20260906043025 | 57 | 355 | 1.0 | 0.0 | 0.00 | 0.00 | 0.01 | 84 | 1016.9 |
| 20260906041523 | 57 | 323 | 0.0 | 0.0 | 0.00 | 0.00 | 0.01 | 84 | 1016.6 |
| 20260906040031 | 57 | 248 | 0.0 | 0.0 | 0.00 | 0.00 | 0.01 | 84 | 1016.3 |
| 20260906034526 | 57 | 348 | 0.0 | 0.0 | 0.00 | 0.00 | 0.01 | 84 | 1016.2 |
| 20260906033017 | 57 | 318 | 0.0 | 0.0 | 0.00 | 0.00 | 0.01 | 83 | 1015.8 |
| 20260906031517 | 57 | 18 | 0.0 | 0.0 | 0.00 | 0.00 | 0.01 | 83 | 1015.9 |
| 20260906030014 | 57 | 327 | 0.0 | 0.0 | 0.00 | 0.00 | 0.01 | 83 | 1015.5 |
| 20260906024516 | 58 | 303 | 0.0 | 0.0 | 0.00 | 0.00 | 0.01 | 83 | 1015.3 |
| 20260906023011 | 58 | 275 | 1.0 | 0.0 | 0.00 | 0.00 | 0.01 | 83 | 1015.2 |
| 20260906021511 | 58 | 15 | 0.0 | 0.0 | 0.00 | 0.00 | 0.01 | 83 | 1015.1 |
| 20260906020017 | 58 | 328 | 1.0 | 0.0 | 0.00 | 0.00 | 0.01 | 83 | 1014.8 |
| 20260906014510 | 58 | 292 | 1.0 | 0.0 | 0.00 | 0.00 | 0.00 | 83 | 1014.9 |
| 20260906013007 | 58 | 317 | 1.0 | 0.0 | 0.00 | 0.00 | 0.00 | 83 | 1014.7 |
| 20260906011507 | 58 | 281 | 0.0 | 0.0 | 0.00 | 0.00 | 0.00 | 83 | 1014.6 |
| 20260906010006 | 58 | 355 | 1.0 | 0.0 | 0.00 | 0.00 | 0.00 | 83 | 1014.5 |
| 20260906004504 | 58 | 246 | 1.0 | 0.0 | 0.00 | 0.00 | 0.00 | 83 | 1014.3 |
| 20260906003003 | 58 | 238 | 1.0 | 0.0 | 0.00 | 0.00 | 0.00 | 83 | 1014.0 |
| 20260906001501 | 58 | 259 | 1.0 | 0.0 | 0.00 | 0.00 | 0.00 | 83 | 1013.8 |
| 20260906000108 | 58 | 253 | 0.0 | 0.0 | 0.00 | 0.00 | 0.00 | 82 | 1013.6 |
| 20260905234620 | 58 | 257 | 1.0 | 0.0 | 0.00 | 0.00 | 0.00 | 82 | 1013.5 |
| 20260905233055 | 59 | 246 | 0.0 | 0.0 | 0.00 | 0.00 | 0.00 | 81 | 1013.2 |
| 20260905231555 | 59 | 286 | 1.0 | 0.0 | 0.00 | 0.00 | 0.00 | 81 | 1013.1 |
| 20260905224552 | 59 | 307 | 1.0 | 0.0 | 0.00 | 0.00 | 0.00 | 80 | 1012.9 |
| 20260905223052 | 59 | 232 | 1.0 | 0.0 | 0.00 | 0.00 | 0.00 | 80 | 1012.6 |
| 20260905221551 | 59 | 28 | 1.0 | 0.0 | 0.00 | 0.00 | 0.00 | 80 | 1012.4 |
| 20260905220045 | 59 | 248 | 0.0 | 0.0 | 0.00 | 0.00 | 0.00 | 80 | 1012.2 |
| 20260905214543 | 59 | 340 | 1.0 | 0.0 | 0.00 | 0.00 | 0.03 | 80 | 1012.0 |
| 20260905213041 | 59 | 277 | 1.0 | 0.0 | 0.00 | 0.00 | 0.03 | 79 | 1011.6 |
| 20260905211541 | 59 | 253 | 1.0 | 0.0 | 0.00 | 0.00 | 0.03 | 79 | 1011.7 |
| 20260905210053 | 59 | 279 | 1.0 | 0.0 | 0.00 | 0.00 | 0.03 | 79 | 1011.3 |
| 20260905204539 | 59 | 226 | 1.0 | 0.0 | 0.00 | 0.00 | 0.03 | 79 | 1011.1 |
| 20260905203051 | 59 | 236 | 2.0 | 0.0 | 0.00 | 0.00 | 0.03 | 79 | 1011.0 |
| 20260905201537 | 59 | 246 | 1.0 | 0.0 | 0.00 | 0.00 | 0.03 | 80 | 1010.8 |
| 20260905200036 | 59 | 271 | 1.0 | 0.0 | 0.00 | 0.00 | 0.03 | 79 | 1010.7 |
| 20260905194532 | 59 | 283 | 2.0 | 0.0 | 0.00 | 0.00 | 0.03 | 79 | 1010.5 |